Weather History for Chillicothe, MO

Change the Weather History Date:

Monday, April 8, 2013

  Actual Average (KIRK) Record (KIRK)
Temperature  
Mean Temperature 62 °F 49 °F  
Max Temperature 75 °F 61 °F 84 °F (1931)
Min Temperature 52 °F 38 °F 19 °F (2007)
Degree Days  
Heating Degree Days 2 16  
Month to date heating degree days 135  
Since 1 July heating degree days 5422  
Cooling Degree Days 0 0  
Month to date cooling degree days 0  
Year to date cooling degree days 0  
Growing Degree Days 12 (Base 50)    
Moisture  
Dew Point 56 °F    
Average Humidity 78    
Maximum Humidity 90    
Minimum Humidity 62    
Precipitation  
Precipitation 0.48 in 0.09 in 1.41 in (2008)
Month to date precipitation 0.61  
Year to date precipitation 5.96  
Sea Level Pressure  
Sea Level Pressure 29.71 in    
Wind  
Wind Speed 6 mph (South)    
Max Wind Speed 13 mph    
Max Gust Speed 18 mph    
T = Trace of Precipitation, MM = Missing Value Source: NWS Daily Summary

Daily Weather History Graph

Daily Weather History Graph

Search for Another Location

Airport:

Trip Planner

Search our weather history database for the weather conditions in past years. The results will help you decide how hot, cold, wet, or windy it might be!

Date:

Astronomy

Apr. 08, 2013 Rise Set
Actual Time 6:46 AM CDT 7:45 PM CDT
Civil Twilight 6:19 AM CDT 8:13 PM CDT
Nautical Twilight 5:46 AM CDT 8:46 PM CDT
Astronomical Twilight 5:12 AM CDT 9:20 PM CDT
Moon 5:37 AM CDT (4/8) 6:20 PM CDT (4/8)
Length of Visible Light 13h 54m
Length of Day
12h 58m
Waning Crescent, 3% of the Moon is Illuminated
Apr 8
Waning Crescent
Apr 10
New
Apr 18
First Quarter
Apr 25
Full
May 2
Last Quarter

Hourly Weather History & Observations

Time (CDT) Temp. Dew Point Humidity Pressure Visibility Wind Dir Wind Speed Gust Speed Precip Events Conditions
12:52 AM 57.0 °F 54.0 °F 89% 29.73 in - West 12.7 mph 18.4 mph 0.20 in   Unknown
1:52 AM 55.0 °F 51.1 °F 86% 29.67 in - NW 3.5 mph - 0.28 in   Unknown
2:52 AM 53.1 °F 50.0 °F 89% 29.66 in - SSW 4.6 mph - N/A   Unknown
3:52 AM 53.1 °F 50.0 °F 89% 29.66 in - SSW 5.8 mph - N/A   Unknown
4:52 AM 52.0 °F 48.9 °F 89% 29.66 in - Variable 3.5 mph - N/A   Unknown
5:52 AM 53.1 °F 50.0 °F 89% 29.66 in - SW 3.5 mph - N/A   Unknown
6:52 AM 54.0 °F 51.1 °F 90% 29.69 in - SW 3.5 mph - N/A   Unknown
7:52 AM 55.9 °F 52.0 °F 87% 29.72 in - South 5.8 mph - N/A   Unknown
8:52 AM 57.9 °F 54.0 °F 87% 29.73 in - South 5.8 mph - N/A   Unknown
9:52 AM 61.0 °F 57.0 °F 87% 29.73 in - South 4.6 mph - N/A   Unknown
10:52 AM 64.0 °F 57.9 °F 80% 29.75 in - South 4.6 mph - N/A   Unknown
11:52 AM 68.0 °F 57.9 °F 70% 29.75 in - Calm Calm - N/A   Unknown
12:52 PM 69.1 °F 60.1 °F 73% 29.75 in - SSW 6.9 mph - N/A   Unknown
1:52 PM 68.0 °F 59.0 °F 73% 29.74 in - South 5.8 mph - N/A   Unknown
2:52 PM 70.0 °F 61.0 °F 73% 29.74 in - South 9.2 mph - N/A   Unknown
3:52 PM 72.0 °F 60.1 °F 66% 29.71 in - SSE 9.2 mph - N/A   Unknown
4:52 PM 73.0 °F 61.0 °F 66% 29.70 in - SE 5.8 mph - N/A   Unknown
5:52 PM 73.9 °F 60.1 °F 62% 29.70 in - SE 10.4 mph - N/A   Unknown
6:52 PM 73.0 °F 60.1 °F 64% 29.71 in - SE 8.1 mph - N/A   Unknown
7:52 PM 70.0 °F 61.0 °F 73% 29.73 in - East 3.5 mph - N/A   Unknown
8:52 PM 70.0 °F 60.1 °F 71% 29.73 in - East 4.6 mph - N/A   Unknown
9:52 PM 69.1 °F 60.1 °F 73% 29.75 in - ESE 6.9 mph - N/A   Unknown
10:52 PM 68.0 °F 59.0 °F 73% 29.75 in - ESE 4.6 mph - N/A   Unknown
11:52 PM 68.0 °F 57.9 °F 70% 29.73 in - SSE 5.8 mph - N/A   Unknown